Wind_Speed
29 30 31 32 33 33 34 35 35 36 37 36 37 38 37 37 37 38 38 37 37 36 36 37 37 37 36 37 38 37 38 38 38 38 38 37 37 36 36 36 36 36 36
30 30 30 32 32 34 34 35 36 36 37 38 38 38 38 38 38 39 38 38 39 38 37 37 37 38 38 38 39 39 38 37 38 38 37 37 37 38 38 37 37 36 37
31 31 31 33 34 35 35 35 36 36 37 38 38 38 39 40 40 40 40 39 39 38 38 37 37 38 39 39 39 39 39 39 39 38 37 37 37 38 37 38 37 37 38
32 33 33 33 34 35 35 35 36 37 37 37 39 40 40 39 39 39 40 41 40 40 38 38 39 38 38 39 39 39 39 40 40 39 38 37 37 37 36 36 37 38 39
33 33 33 34 34 35 35 34 36 38 38 38 38 39 40 40 40 40 41 41 40 40 40 40 40 39 39 39 39 40 40 40 39 39 38 38 37 37 37 37 38 38 39
33 33 34 34 35 35 36 35 35 37 38 39 39 40 40 41 41 40 41 41 40 40 40 40 40 40 40 40 41 41 41 40 40 40 39 40 39 39 39 39 39 39 40
32 33 34 34 35 36 37 37 37 38 39 40 40 41 41 41 42 41 41 42 43 42 42 42 41 41 41 41 41 42 41 41 41 41 41 41 41 41 41 41 41 41 41
32 33 34 34 35 36 37 38 38 39 40 40 40 41 42 42 42 42 43 43 44 44 44 43 43 42 42 43 43 43 42 42 42 42 42 42 42 43 43 42 42 41 42
31 32 34 35 36 36 37 37 38 39 39 40 41 41 41 42 42 43 44 44 44 45 45 44 44 44 44 45 45 44 43 43 44 44 44 44 43 43 44 43 43 43 44
30 32 33 34 35 36 37 38 38 39 39 40 41 41 41 42 43 44 44 45 44 45 45 45 45 46 46 46 45 45 45 44 44 44 44 45 45 45 45 45 45 45 45
30 31 32 32 33 35 36 37 38 39 40 41 41 42 43 43 43 43 44 45 45 46 46 46 46 47 47 47 46 46 46 46 46 46 46 45 45 46 46 46 47 47 47
29 30 31 32 33 34 35 37 39 40 40 41 42 42 44 45 45 44 44 45 46 47 48 48 48 48 47 47 46 46 46 46 46 46 46 46 45 46 47 47 48 48 48
29 30 31 32 33 34 36 37 39 40 41 41 43 43 44 45 45 45 45 45 46 47 48 49 49 49 48 48 48 47 47 47 47 47 46 46 46 47 47 48 49 49 49
29 30 31 32 34 34 35 36 37 39 40 41 42 43 44 44 45 46 46 46 47 47 48 48 48 48 48 48 48 48 48 49 48 47 46 46 47 48 48 49 49 49 49
28 29 30 31 33 33 34 35 36 37 39 40 41 42 43 44 45 46 46 47 47 48 48 48 47 47 48 48 48 48 48 48 48 48 47 47 47 48 48 49 49 49 49
27 28 29 30 31 32 33 35 36 37 38 39 40 41 43 44 45 46 47 47 48 48 48 48 48 47 47 48 48 48 48 48 48 48 48 48 47 48 49 48 48 48 49
28 29 30 31 32 32 33 33 34 36 37 38 39 40 41 43 44 45 46 46 47 47 47 47 47 47 48 47 47 48 48 48 48 47 47 47 47 48 48 48 47 47 48
29 30 30 31 32 32 33 33 34 35 36 36 37 38 39 41 42 43 44 44 44 44 45 46 46 46 47 47 47 47 47 47 47 47 46 46 46 46 46 46 46 46 46
29 29 30 30 31 32 33 34 34 35 35 36 36 37 37 38 39 40 40 41 42 43 43 44 44 45 45 46 46 46 45 45 45 45 45 45 45 45 45 45 45 44 45
29 29 29 29 30 30 32 33 34 34 35 35 35 36 36 37 37 38 39 39 40 41 42 42 43 44 44 44 44 44 44 44 44 45 45 45 45 45 45 45 45 44 45
28 28 29 28 29 30 31 32 32 33 34 35 35 35 35 36 36 36 37 37 38 39 39 40 41 41 42 43 43 43 43 43 43 44 44 45 45 45 45 44 44 44 45
27 27 27 28 28 29 30 31 31 32 33 34 34 34 35 36 36 35 36 36 37 37 38 39 39 40 40 41 41 42 42 42 42 42 43 44 44 44 44 43 43 43 43
26 26 27 27 28 29 29 30 31 31 31 31 33 34 34 34 34 34 34 35 35 36 36 37 37 38 39 40 40 41 41 41 41 41 42 42 43 43 42 42 42 42 42
26 26 27 27 28 29 30 31 31 31 31 31 32 32 33 33 33 33 33 33 34 34 35 35 36 37 38 39 40 40 40 40 40 41 41 41 41 41 40 40 40 41 42
26 26 27 27 28 29 29 30 31 31 32 32 32 32 32 32 32 32 33 33 34 34 34 34 34 35 37 38 38 38 38 38 39 39 39 39 39 39 39 39 39 40 40
25 26 27 27 28 28 28 29 30 30 30 30 31 32 32 32 32 32 33 33 33 33 33 34 34 34 35 35 36 36 36 36 37 37 37 37 37 37 37 37 38 39 39
Wind_Direction
253 253 250 248 247 245 243 244 244 245 246 245 245 246 248 249 250 252 253 254 255 258 260 260 261 262 264 265 265 268 270 270 271 271 271 271 270 267 266 265 265 265 265
252 252 251 251 249 247 245 246 247 247 246 246 247 248 248 249 251 253 255 256 257 259 261 262 262 264 265 265 266 269 270 271 271 272 272 271 269 267 265 265 265 265 265
252 253 252 251 251 250 249 248 248 248 247 247 248 249 249 250 252 254 255 258 259 260 261 262 264 266 266 265 267 268 269 270 272 273 273 271 269 266 265 264 264 265 265
254 253 252 251 251 251 251 251 249 248 248 248 249 250 252 253 254 256 257 258 259 260 261 264 265 266 266 265 265 267 269 270 271 271 271 270 269 267 265 265 265 265 266
254 253 252 251 251 252 252 253 253 251 252 251 251 252 254 254 256 257 258 258 260 261 263 265 266 267 266 264 265 267 269 269 269 269 269 269 270 268 267 266 266 266 267
253 253 252 252 252 252 252 252 254 254 253 253 253 254 255 255 257 258 258 258 260 263 265 266 267 268 268 266 266 267 269 269 268 268 269 268 269 268 269 270 269 268 268
254 254 253 252 253 252 252 252 253 254 254 254 255 255 256 256 257 258 258 259 261 263 264 266 267 268 270 270 270 270 270 268 268 268 269 268 269 270 270 270 270 269 269
256 254 254 253 254 253 253 253 254 254 255 255 256 256 257 257 258 258 259 261 262 263 264 265 266 268 269 270 271 271 269 268 268 269 269 269 269 270 270 270 271 271 270
255 255 255 255 255 255 255 255 255 254 255 255 256 257 257 257 258 259 260 262 263 263 264 264 266 267 268 270 270 270 269 269 269 270 269 270 270 270 270 270 270 271 271
256 256 257 257 257 256 256 256 256 256 256 257 257 257 257 258 259 260 260 261 263 264 264 264 265 266 267 269 269 269 269 269 270 271 270 270 270 271 272 271 270 271 271
260 259 259 258 257 257 256 256 257 258 258 257 258 258 258 259 261 261 262 262 263 264 264 264 265 266 267 268 267 268 269 270 270 270 271 271 271 271 271 272 272 272 273
263 262 262 261 259 259 258 257 258 259 258 258 259 259 260 260 261 262 263 264 264 264 264 265 266 266 266 267 268 268 269 270 270 270 271 271 271 272 273 274 273 273 273
265 264 264 263 262 261 260 259 259 260 260 260 260 261 261 262 262 263 263 264 265 265 265 265 266 266 266 267 268 268 269 270 271 271 270 270 270 272 273 274 274 273 272
268 267 267 265 263 263 262 261 261 261 261 261 262 262 262 263 264 264 264 264 265 265 265 266 266 266 266 267 267 268 268 269 269 269 270 270 271 272 273 273 274 273 272
270 269 268 268 266 265 263 263 263 262 262 263 263 264 264 264 264 265 265 265 265 265 265 266 266 266 266 266 267 267 267 267 267 268 269 270 272 272 273 273 272 272 271
273 273 271 270 269 267 266 265 264 264 264 264 265 265 265 265 265 266 266 266 266 266 266 266 266 266 266 267 267 267 267 266 267 268 269 270 271 272 272 272 272 271 270
274 274 273 271 270 269 267 267 266 265 265 266 266 266 266 266 267 267 268 267 267 266 266 266 266 266 266 267 267 267 267 266 267 268 269 270 271 271 270 270 270 270 270
275 273 273 273 272 271 269 268 268 267 267 267 267 268 268 269 268 268 268 268 267 267 267 266 266 266 267 267 267 267 267 267 267 267 268 269 270 270 270 270 270 270 270
277 276 275 275 274 273 271 268 268 269 269 269 269 269 270 270 270 269 269 269 269 268 268 267 267 267 268 268 267 267 267 267 267 268 269 269 270 270 270 270 269 269 269
278 278 278 277 276 275 274 270 269 270 271 271 270 271 271 271 271 271 271 271 271 270 268 268 268 268 268 269 269 268 267 268 268 268 268 269 269 270 270 270 269 268 268
280 280 280 280 279 278 276 273 272 272 272 272 271 271 272 272 273 273 274 273 272 271 270 269 269 270 270 270 269 268 268 268 268 268 268 268 268 269 269 269 269 268 268
283 283 284 284 283 281 279 275 274 275 274 274 273 272 272 273 274 274 275 275 274 272 271 270 270 270 270 270 269 269 269 269 269 269 270 269 269 269 269 269 269 269 268
286 286 286 285 285 283 282 279 278 278 278 277 275 274 274 273 273 274 275 276 275 274 273 271 270 270 270 271 270 270 269 269 269 269 270 270 269 269 269 269 269 269 269
288 287 287 286 286 285 284 282 280 278 278 277 278 277 276 275 276 277 277 277 276 275 274 272 272 271 271 271 271 271 269 268 269 269 270 270 270 269 269 268 269 269 269
291 291 290 290 288 287 286 285 282 280 279 278 278 276 276 277 277 277 278 278 277 276 275 274 273 273 273 272 272 271 270 270 270 270 270 271 271 270 270 269 269 269 269
294 294 293 292 290 289 288 287 284 283 281 280 278 277 277 277 276 277 278 279 279 277 275 275 275 275 275 274 273 271 271 271 271 271 272 272 272 271 271 270 270 271 270
Height
5727 5727 5729 5730 5732 5733 5736 5739 5741 5743 5745 5748 5751 5754 5756 5757 5759 5760 5762 5763 5764 5765 5766 5767 5767 5768 5768 5768 5768 5767 5767 5765 5764 5764 5763 5761 5760 5759 5759 5759 5759 5759 5760
5718 5720 5721 5723 5725 5726 5728 5731 5733 5735 5738 5740 5742 5745 5747 5749 5751 5752 5753 5754 5755 5756 5757 5758 5759 5759 5759 5759 5759 5758 5758 5756 5755 5754 5753 5753 5752 5750 5750 5749 5750 5750 5751
5711 5712 5714 5716 5717 5719 5721 5723 5725 5727 5729 5731 5733 5735 5737 5739 5742 5743 5745 5745 5747 5748 5748 5749 5750 5750 5750 5750 5749 5749 5749 5748 5746 5745 5744 5743 5742 5742 5741 5741 5741 5741 5741
5703 5704 5706 5707 5709 5710 5712 5714 5716 5718 5720 5723 5725 5726 5728 5730 5732 5734 5735 5737 5737 5738 5739 5740 5740 5740 5740 5740 5740 5739 5739 5738 5737 5736 5734 5733 5732 5732 5733 5733 5732 5732 5732
5694 5696 5697 5699 5701 5702 5704 5705 5707 5709 5712 5714 5716 5717 5719 5721 5723 5724 5726 5727 5728 5729 5729 5730 5730 5731 5730 5730 5730 5729 5729 5728 5727 5726 5725 5724 5723 5723 5723 5724 5723 5722 5722
5686 5687 5689 5690 5692 5694 5695 5697 5699 5700 5702 5704 5706 5708 5710 5712 5714 5715 5716 5718 5719 5719 5720 5720 5720 5720 5720 5720 5719 5719 5718 5718 5717 5716 5716 5715 5714 5714 5713 5713 5713 5713 5712
5677 5679 5680 5682 5683 5685 5686 5688 5690 5691 5693 5695 5697 5699 5701 5702 5704 5706 5707 5708 5709 5710 5710 5710 5710 5710 5710 5710 5709 5708 5708 5707 5707 5706 5705 5705 5704 5703 5703 5702 5702 5702 5702
5668 5669 5671 5673 5674 5676 5677 5679 5681 5682 5684 5685 5687 5689 5691 5693 5694 5695 5697 5698 5698 5699 5699 5700 5700 5699 5699 5699 5698 5698 5697 5696 5696 5695 5695 5694 5693 5692 5691 5691 5691 5690 5690
5659 5660 5662 5664 5665 5666 5668 5669 5671 5672 5674 5675 5677 5679 5680 5682 5683 5685 5686 5687 5687 5688 5688 5688 5688 5688 5688 5687 5687 5687 5686 5685 5685 5684 5683 5683 5682 5680 5680 5679 5678 5678 5678
5650 5651 5652 5654 5655 5657 5658 5659 5661 5662 5664 5665 5667 5668 5670 5671 5672 5673 5675 5675 5676 5676 5676 5676 5676 5676 5676 5676 5675 5675 5674 5674 5673 5672 5671 5671 5670 5669 5668 5667 5666 5665 5665
5641 5642 5643 5644 5645 5646 5648 5649 5650 5652 5653 5655 5656 5657 5658 5659 5660 5661 5662 5663 5664 5664 5664 5664 5664 5664 5663 5663 5663 5662 5662 5661 5660 5660 5659 5658 5657 5656 5655 5654 5654 5653 5652
5632 5632 5633 5634 5635 5636 5637 5638 5640 5641 5642 5643 5645 5646 5647 5648 5648 5649 5649 5650 5651 5651 5651 5651 5651 5651 5651 5650 5650 5649 5649 5648 5648 5647 5646 5646 5645 5644 5643 5642 5641 5640 5638
5623 5623 5623 5624 5625 5626 5626 5627 5629 5630 5631 5631 5632 5633 5634 5635 5635 5636 5636 5637 5637 5638 5638 5638 5638 5637 5637 5637 5636 5636 5635 5635 5634 5634 5633 5633 5632 5631 5630 5629 5627 5626 5625
5614 5614 5614 5614 5614 5615 5615 5616 5617 5618 5619 5620 5620 5621 5622 5622 5622 5623 5623 5623 5624 5624 5624 5624 5624 5623 5623 5623 5623 5622 5622 5621 5621 5620 5620 5619 5618 5617 5616 5615 5614 5612 5611
5605 5605 5604 5604 5604 5605 5605 5605 5606 5606 5607 5608 5608 5609 5609 5609 5609 5609 5609 5609 5609 5610 5609 5609 5609 5609 5609 5609 5608 5608 5608 5608 5607 5607 5606 5605 5604 5603 5602 5601 5599 5598 5597
5596 5595 5595 5595 5595 5595 5595 5595 5595 5595 5595 5595 5596 5596 5596 5596 5596 5596 5596 5595 5595 5595 5595 5595 5594 5594 5594 5594 5594 5594 5594 5593 5593 5593 5592 5591 5590 5589 5587 5586 5585 5584 5583
5587 5586 5585 5585 5585 5584 5584 5584 5584 5584 5584 5584 5584 5584 5583 5583 5583 5582 5582 5582 5581 5581 5580 5580 5580 5580 5580 5580 5580 5579 5579 5579 5579 5579 5578 5577 5576 5575 5573 5572 5571 5570 5569
5578 5577 5576 5575 5574 5574 5573 5573 5573 5572 5572 5572 5572 5571 5571 5570 5570 5569 5568 5568 5567 5567 5566 5566 5566 5566 5566 5566 5566 5565 5565 5565 5565 5564 5564 5563 5562 5561 5560 5559 5558 5557 5556
5568 5567 5566 5565 5564 5563 5562 5562 5562 5561 5561 5560 5560 5559 5558 5557 5557 5556 5555 5555 5554 5554 5554 5553 5553 5553 5553 5552 5552 5552 5552 5552 5551 5551 5551 5550 5549 5548 5547 5546 5545 5544 5543
5559 5558 5556 5555 5554 5553 5551 5551 5551 5550 5549 5549 5548 5547 5546 5545 5544 5543 5543 5542 5542 5541 5541 5540 5540 5540 5540 5539 5539 5538 5539 5539 5539 5538 5538 5537 5536 5535 5533 5533 5532 5532 5531
5550 5549 5547 5546 5544 5542 5541 5540 5540 5539 5538 5537 5536 5535 5534 5534 5533 5532 5531 5530 5529 5529 5528 5528 5528 5527 5527 5526 5526 5526 5526 5526 5525 5525 5524 5524 5523 5522 5520 5520 5519 5519 5518
5541 5539 5538 5536 5535 5533 5531 5530 5529 5528 5527 5526 5525 5524 5523 5522 5521 5520 5519 5518 5517 5516 5516 5515 5515 5514 5514 5513 5513 5513 5513 5512 5512 5512 5512 5511 5510 5509 5508 5507 5506 5506 5505
5533 5531 5529 5527 5525 5523 5521 5520 5519 5517 5516 5515 5514 5513 5512 5510 5509 5509 5508 5506 5505 5504 5504 5503 5503 5502 5502 5501 5500 5500 5500 5499 5499 5499 5499 5498 5497 5496 5495 5495 5494 5493 5492
5525 5523 5521 5519 5516 5514 5512 5510 5508 5507 5505 5504 5503 5502 5501 5500 5498 5497 5496 5495 5494 5493 5492 5492 5491 5491 5490 5489 5488 5487 5487 5487 5487 5487 5486 5485 5484 5484 5483 5483 5482 5481 5480
5517 5514 5512 5510 5507 5505 5502 5500 5498 5497 5495 5494 5493 5492 5490 5489 5488 5487 5486 5485 5484 5482 5482 5481 5480 5479 5478 5477 5476 5475 5475 5475 5475 5474 5474 5473 5473 5472 5471 5471 5470 5469 5468
5509 5506 5503 5500 5498 5495 5493 5490 5488 5486 5485 5484 5482 5481 5480 5479 5478 5477 5475 5473 5473 5471 5470 5470 5469 5468 5467 5466 5465 5464 5464 5463 5463 5463 5463 5462 5461 5461 5460 5459 5458 5457 5456